Time,TemperatureF,DewpointF,PressureIn,WindDirection,WindDirectionDegrees,WindSpeedMPH,WindSpeedGustMPH,Humidity,HourlyPrecipIn,Conditions,Clouds,dailyrainin,SoftwareType,DateUTC
2013-02-05 03:01:00,27.0,27.0,-100.00,WSW,245,0.0,4.0,98,15.87,,,-99.99,,2013-02-05 08:01:00,
2013-02-05 03:42:00,27.0,27.0,-100.00,ESE,103,0.0,4.0,99,15.87,,,-99.99,,2013-02-05 08:42:00,
2013-02-05 09:52:00,27.0,27.0,-100.00,ESE,120,0.0,1.0,98,15.87,,,-99.99,,2013-02-05 14:52:00,
2013-02-05 10:02:00,27.0,27.0,-100.00,NNE,31,0.0,1.0,98,15.87,,,-99.99,,2013-02-05 15:02:00,
2013-02-05 10:22:00,27.0,27.0,-100.00,NNE,22,0.0,1.0,98,15.87,,,-99.99,,2013-02-05 15:22:00,
2013-02-05 10:52:00,27.0,27.0,-100.00,East,84,0.0,1.0,98,15.87,,,-99.99,,2013-02-05 15:52:00,
2013-02-05 11:01:00,28.0,28.0,-100.00,East,79,1.0,2.0,98,15.87,,,-99.99,,2013-02-05 16:01:00,
2013-02-05 11:12:00,28.0,28.0,-100.00,ENE,69,1.0,2.0,98,15.87,,,-99.99,,2013-02-05 16:12:00,
2013-02-05 11:22:00,28.0,28.0,-100.00,East,90,1.0,2.0,98,15.87,,,-99.99,,2013-02-05 16:22:00,
2013-02-05 11:32:00,28.0,28.0,-100.00,ENE,64,1.0,2.0,98,15.87,,,-99.99,,2013-02-05 16:32:00,
2013-02-05 11:42:00,28.0,28.0,-100.00,NE,52,1.0,2.0,98,15.87,,,-99.99,,2013-02-05 16:42:00,
2013-02-05 11:52:00,28.0,28.0,-100.00,NE,53,1.0,2.0,98,15.87,,,-99.99,,2013-02-05 16:52:00,
2013-02-05 12:01:00,28.0,28.0,-100.00,NE,35,1.0,2.0,97,15.87,,,-99.99,,2013-02-05 17:01:00,
2013-02-05 12:12:00,29.0,28.0,-100.00,NNE,33,1.0,2.0,97,15.87,,,-99.99,,2013-02-05 17:12:00,
2013-02-05 12:22:00,29.0,28.0,-100.00,East,81,0.0,2.0,97,15.87,,,-99.99,,2013-02-05 17:22:00,
2013-02-05 12:32:00,29.0,28.0,-100.00,NE,45,2.0,2.0,97,15.87,,,-99.99,,2013-02-05 17:32:00,
2013-02-05 12:42:00,28.0,28.0,-100.00,NNE,26,2.0,2.0,95,15.87,,,-99.99,,2013-02-05 17:42:00,
2013-02-05 12:52:00,28.0,28.0,-100.00,NE,40,2.0,4.0,95,15.87,,,-99.99,,2013-02-05 17:52:00,
2013-02-05 13:02:00,29.0,28.0,-100.00,NNE,32,2.0,4.0,95,15.87,,,-99.99,,2013-02-05 18:02:00,
2013-02-05 13:11:00,29.0,28.0,-100.00,NE,38,3.0,4.0,94,15.87,,,-99.99,,2013-02-05 18:11:00,
2013-02-05 13:22:00,29.0,28.0,-100.00,ENE,64,5.0,6.0,94,15.87,,,-99.99,,2013-02-05 18:22:00,
2013-02-05 13:32:00,29.0,28.0,-100.00,NE,38,4.0,6.0,94,15.87,,,-99.99,,2013-02-05 18:32:00,
2013-02-05 13:42:00,29.0,28.0,-100.00,ESE,103,5.0,6.0,94,15.87,,,-99.99,,2013-02-05 18:42:00,
2013-02-05 13:52:00,29.0,28.0,-100.00,NE,40,4.0,6.0,93,15.87,,,-99.99,,2013-02-05 18:52:00,
2013-02-05 14:02:00,30.0,28.0,-100.00,ENE,64,4.0,6.0,91,15.87,,,-99.99,,2013-02-05 19:02:00,
2013-02-05 14:11:00,29.0,27.0,-100.00,NE,40,7.0,10.0,90,15.87,,,-99.99,,2013-02-05 19:11:00,
2013-02-05 14:22:00,30.0,28.0,-100.00,NE,38,7.0,10.0,88,15.87,,,-99.99,,2013-02-05 19:22:00,
2013-02-05 14:32:00,30.0,27.0,-100.00,NE,49,6.0,10.0,86,15.87,,,-99.99,,2013-02-05 19:32:00,
2013-02-05 14:42:00,30.0,27.0,-100.00,East,79,4.0,10.0,85,15.87,,,-99.99,,2013-02-05 19:42:00,
2013-02-05 14:52:00,30.0,27.0,-100.00,East,83,6.0,10.0,82,15.87,,,-99.99,,2013-02-05 19:52:00,
2013-02-05 15:02:00,31.0,27.0,-100.00,East,87,7.0,10.0,81,15.87,,,-99.99,,2013-02-05 20:02:00,
2013-02-05 15:11:00,30.0,25.0,-100.00,East,100,5.0,10.0,80,15.87,,,-99.99,,2013-02-05 20:11:00,
2013-02-05 15:22:00,30.0,25.0,-100.00,East,87,6.0,10.0,80,15.87,,,-99.99,,2013-02-05 20:22:00,
2013-02-05 15:32:00,29.0,25.0,-100.00,SE,138,6.0,10.0,81,15.87,,,-99.99,,2013-02-05 20:32:00,
2013-02-05 15:42:00,29.0,25.0,-100.00,SE,141,5.0,10.0,81,15.87,,,-99.99,,2013-02-05 20:42:00,
2013-02-05 15:52:00,29.0,25.0,-100.00,East,83,4.0,10.0,81,15.87,,,-99.99,,2013-02-05 20:52:00,
2013-02-05 16:02:00,30.0,27.0,-100.00,ESE,105,2.0,10.0,81,15.87,,,-99.99,,2013-02-05 21:02:00,
2013-02-05 16:11:00,30.0,27.0,-100.00,East,90,2.0,10.0,81,15.87,,,-99.99,,2013-02-05 21:11:00,
2013-02-05 16:22:00,31.0,27.0,-100.00,ESE,121,1.0,10.0,80,15.87,,,-99.99,,2013-02-05 21:22:00,
2013-02-05 16:32:00,31.0,27.0,-100.00,East,94,2.0,10.0,78,15.87,,,-99.99,,2013-02-05 21:32:00,
2013-02-05 16:42:00,31.0,25.0,-100.00,SE,131,1.0,10.0,78,15.87,,,-99.99,,2013-02-05 21:42:00,
2013-02-05 16:52:00,31.0,25.0,-100.00,East,100,2.0,10.0,76,15.87,,,-99.99,,2013-02-05 21:52:00,
2013-02-05 17:02:00,31.0,25.0,-100.00,East,91,2.0,10.0,76,15.87,,,-99.99,,2013-02-05 22:02:00,
2013-02-05 17:12:00,31.0,25.0,-100.00,NE,43,1.0,10.0,76,15.87,,,-99.99,,2013-02-05 22:12:00,
2013-02-05 17:22:00,31.0,25.0,-100.00,East,83,1.0,10.0,76,15.87,,,-99.99,,2013-02-05 22:22:00,
2013-02-05 17:32:00,30.0,23.0,-100.00,ENE,62,2.0,10.0,73,15.87,,,-99.99,,2013-02-05 22:32:00,
2013-02-05 17:42:00,31.0,25.0,-100.00,NE,55,4.0,10.0,72,15.87,,,-99.99,,2013-02-05 22:42:00,
2013-02-05 17:52:00,31.0,21.0,-100.00,ENE,62,5.0,10.0,67,15.87,,,-99.99,,2013-02-05 22:52:00,
2013-02-05 18:02:00,31.0,21.0,-100.00,NE,38,4.0,10.0,67,15.87,,,-99.99,,2013-02-05 23:02:00,
2013-02-05 18:11:00,29.0,21.0,-100.00,NE,42,2.0,10.0,67,15.87,,,-99.99,,2013-02-05 23:11:00,
2013-02-05 18:22:00,30.0,21.0,-100.00,NNE,31,2.0,10.0,68,15.87,,,-99.99,,2013-02-05 23:22:00,
2013-02-05 18:32:00,30.0,21.0,-100.00,NNE,33,2.0,10.0,67,15.87,,,-99.99,,2013-02-05 23:32:00,
2013-02-05 18:42:00,29.0,21.0,-100.00,ENE,73,1.0,10.0,68,15.87,,,-99.99,,2013-02-05 23:42:00,
2013-02-05 18:52:00,30.0,21.0,-100.00,ENE,62,2.0,10.0,69,15.87,,,-99.99,,2013-02-05 23:52:00,
2013-02-05 19:02:00,30.0,23.0,-100.00,ENE,72,2.0,10.0,71,15.87,,,-99.99,,2013-02-06 00:02:00,
2013-02-05 19:12:00,29.0,23.0,-100.00,NNE,12,2.0,10.0,72,15.87,,,-99.99,,2013-02-06 00:12:00,
2013-02-05 19:22:00,29.0,23.0,-100.00,North,8,1.0,10.0,76,15.87,,,-99.99,,2013-02-06 00:22:00,
2013-02-05 19:32:00,29.0,25.0,-100.00,NE,50,2.0,10.0,78,15.87,,,-99.99,,2013-02-06 00:32:00,
2013-02-05 19:42:00,28.0,25.0,-100.00,NE,35,2.0,10.0,82,15.87,,,-99.99,,2013-02-06 00:42:00,
2013-02-05 19:52:00,28.0,25.0,-100.00,NE,36,1.0,10.0,84,15.87,,,-99.99,,2013-02-06 00:52:00,
2013-02-05 20:02:00,28.0,25.0,-100.00,NE,48,1.0,10.0,86,15.87,,,-99.99,,2013-02-06 01:02:00,
2013-02-05 20:12:00,28.0,25.0,-100.00,NNW,348,1.0,10.0,89,15.87,,,-99.99,,2013-02-06 01:12:00,
2013-02-05 20:22:00,28.0,27.0,-100.00,North,4,1.0,10.0,90,15.87,,,-99.99,,2013-02-06 01:22:00,
2013-02-05 20:32:00,28.0,27.0,-100.00,NNW,331,1.0,10.0,90,15.87,,,-99.99,,2013-02-06 01:32:00,
2013-02-05 20:42:00,27.0,27.0,-100.00,NW,324,1.0,10.0,91,15.87,,,-99.99,,2013-02-06 01:42:00,
2013-02-05 20:52:00,27.0,27.0,-100.00,NNW,341,0.0,10.0,91,15.87,,,-99.99,,2013-02-06 01:52:00,
2013-02-05 21:02:00,27.0,27.0,-100.00,NNW,331,0.0,10.0,91,15.87,,,-99.99,,2013-02-06 02:02:00,
2013-02-05 21:12:00,28.0,27.0,-100.00,SW,227,0.0,10.0,93,15.87,,,-99.99,,2013-02-06 02:12:00,
2013-02-05 21:22:00,27.0,27.0,-100.00,WNW,285,0.0,10.0,93,15.87,,,-99.99,,2013-02-06 02:22:00,
2013-02-05 21:32:00,28.0,27.0,-100.00,NE,43,0.0,10.0,93,15.87,,,-99.99,,2013-02-06 02:32:00,
2013-02-05 21:42:00,28.0,27.0,-100.00,NE,43,0.0,10.0,93,15.87,,,-99.99,,2013-02-06 02:42:00,
2013-02-05 21:52:00,28.0,27.0,-100.00,NE,43,0.0,10.0,93,15.87,,,-99.99,,2013-02-06 02:52:00,
2013-02-05 22:03:00,28.0,27.0,-100.00,NE,43,0.0,10.0,93,15.87,,,-99.99,,2013-02-06 03:03:00,